Concord, NH

2:08 AM EST on December 13, 2017 (GMT -0500)
Concord Municipal

Weather History for KCON - March, 2014

Change the Weather History Date:

Wednesday, March 19, 2014

  Actual Average Record
Temperature  
Mean Temperature 26 °F 34 °F  
Max Temperature 39 °F 45 °F 81 °F (2012)
Min Temperature 13 °F 24 °F -16 °F (1967)
Degree Days  
Heating Degree Days 39 31  
Month to date heating degree days 803 646  
Since 1 July heating degree days 6272 5906  
Cooling Degree Days 0 0  
Month to date cooling degree days 0 0  
Year to date cooling degree days 0 0  
Moisture  
Dew Point 22 °F    
Average Humidity 74    
Maximum Humidity 100    
Minimum Humidity 48    
Precipitation  
Precipitation 0.22 in 0.11 in 1.46 in (1983)
Month to date precipitation 1.31 1.92  
Year to date precipitation 8.63 7.24  
Snow  
Snow T in 0.40 in 11.00 in (2013)
Month to date snowfall 5.7 7.7  
Since 1 July snowfall 75.5 55.2  
Snow Depth 17.00 in    
Sea Level Pressure  
Sea Level Pressure 30.23 in    
Wind  
Wind Speed 5 mph (ESE)    
Max Wind Speed 15 mph    
Max Gust Speed 22 mph    
Visibility 8 miles    
Events Rain , Snow    
T = Trace of Precipitation, MM = Missing Value Source: NWS Daily Summary

Daily Weather History Graph

Daily Weather History Graph

Search for Another Location

Airport or City:

Trip Planner

Search our weather history database for the weather conditions in past years. The results will help you decide how hot, cold, wet, or windy it might be!

Date:

Astronomy

Mar. 19, 2014 Rise Set
Actual Time 6:51 AM EDT 6:57 PM EDT
Civil Twilight 6:22 AM EDT 7:25 PM EDT
Nautical Twilight 5:49 AM EDT 7:58 PM EDT
Astronomical Twilight 5:15 AM EDT 8:32 PM EDT
Moon 10:18 PM EDT (3/19) 8:10 AM EDT (3/19)
Length of Visible Light 13h 02m
Length of Day
12h 06m
Waning Gibbous, 91% of the Moon is Illuminated
Mar 19
Waning Gibbous
Mar 23
Last Quarter
Mar 30
New
Apr 7
First Quarter
Apr 15
Full

Hourly Weather History & Observations

Time (EDT) Temp. Windchill Dew Point Humidity Pressure Visibility Wind Dir Wind Speed Gust Speed Precip Events Conditions
12:51 AM 23.0 °F 18.4 °F 15.1 °F 72% 30.35 in 10.0 mi East 3.5 mph - N/A   Clear
1:51 AM 19.9 °F - 15.1 °F 81% 30.35 in 10.0 mi Calm Calm - N/A   Clear
2:51 AM 18.0 °F - 16.0 °F 92% 30.34 in 10.0 mi Calm Calm - N/A   Clear
3:51 AM 19.0 °F - 14.0 °F 81% 30.34 in 10.0 mi Calm Calm - N/A   Clear
4:51 AM 17.1 °F - 12.0 °F 81% 30.36 in 10.0 mi Calm Calm - N/A   Clear
5:51 AM 14.0 °F - 10.9 °F 88% 30.37 in 10.0 mi Calm Calm - N/A   Clear
6:51 AM 12.9 °F - 10.9 °F 92% 30.39 in 10.0 mi Calm Calm - N/A   Clear
7:51 AM 16.0 °F - 12.9 °F 88% 30.40 in 10.0 mi Calm Calm - N/A   Clear
8:51 AM 21.0 °F - 16.0 °F 81% 30.40 in 10.0 mi Calm Calm - N/A   Clear
9:51 AM 28.9 °F - 18.0 °F 64% 30.38 in 10.0 mi Calm Calm - N/A   Clear
10:51 AM 34.0 °F - 19.0 °F 54% 30.35 in 10.0 mi North - - N/A   Clear
11:51 AM 36.0 °F 29.0 °F 19.0 °F 50% 30.33 in 10.0 mi SE 9.2 mph - N/A   Clear
12:51 PM 37.0 °F 29.3 °F 19.0 °F 48% 30.29 in 10.0 mi ESE 11.5 mph - N/A   Overcast
1:51 PM 37.9 °F 33.5 °F 21.0 °F 51% 30.26 in 10.0 mi Variable 5.8 mph - N/A   Overcast
2:51 PM 39.0 °F 32.8 °F 21.9 °F 50% 30.23 in 10.0 mi East 9.2 mph - N/A   Overcast
3:51 PM 37.9 °F 30.9 °F 24.1 °F 57% 30.21 in 10.0 mi ESE 10.4 mph - N/A   Overcast
4:51 PM 37.0 °F 29.3 °F 24.1 °F 59% 30.19 in 10.0 mi ESE 11.5 mph 19.6 mph N/A   Overcast
5:51 PM 35.1 °F 28.6 °F 25.0 °F 67% 30.21 in 10.0 mi SE 8.1 mph - N/A   Overcast
6:51 PM 34.0 °F 27.2 °F 26.1 °F 73% 30.16 in 8.0 mi ESE 8.1 mph - 0.00 in   Overcast
7:51 PM 34.0 °F 28.8 °F 26.1 °F 73% 30.15 in 10.0 mi ESE 5.8 mph - N/A   Overcast
8:51 PM 33.1 °F 28.7 °F 27.0 °F 78% 30.14 in 5.0 mi ESE 4.6 mph - 0.00 in Snow Light Snow
9:51 PM 33.1 °F 27.7 °F 27.0 °F 78% 30.08 in 9.0 mi ESE 5.8 mph - 0.01 in Rain Light Rain
10:27 PM 32.0 °F - 28.0 °F 85% 30.10 in 4.0 mi Calm Calm - 0.02 in Snow Light Snow
10:38 PM 32.0 °F 28.7 °F 28.9 °F 88% 30.09 in 1.8 mi East 3.5 mph - 0.03 in Snow Light Snow
10:51 PM 32.0 °F 25.6 °F 28.9 °F 88% 30.08 in 1.0 mi East 6.9 mph - 0.03 in Snow Light Snow
10:55 PM 30.9 °F 22.8 °F 30.0 °F 96% 30.05 in 0.8 mi East 9.2 mph - 0.01 in Snow Light Snow
11:20 PM 30.9 °F 23.5 °F 30.0 °F 96% 30.02 in 0.8 mi ESE 8.1 mph - 0.04 in Snow Light Snow
11:27 PM 30.9 °F 24.3 °F 30.0 °F 96% 30.02 in 0.8 mi ESE 6.9 mph 17.3 mph 0.05 in Snow Light Snow
11:32 PM 30.9 °F 23.5 °F 30.0 °F 96% 30.02 in 1.5 mi ESE 8.1 mph 17.3 mph 0.05 in Snow Light Snow
11:35 PM 30.9 °F 25.2 °F 28.9 °F 92% 30.02 in 2.0 mi East 5.8 mph - 0.05 in Snow Light Snow
11:51 PM 30.9 °F 27.5 °F 30.0 °F 96% 30.02 in 2.5 mi East 3.5 mph - 0.07 in Snow Light Snow